EHI
0 0 1 1 1 0 0 0 0 0 0 0 0 0 0 0 0 0 1 5 8 9 8 5 3 2 2 2 2 3 4 5 5 3 1 0 0 0 1 0 0 0 0
1 1 0 0 0 0 0 0 0 0 0 0 0 0 0 0 0 0 1 3 6 8 10 9 6 4 2 1 1 1 2 2 2 1 0 0 0 0 1 0 0 0 0
4 3 1 1 0 0 0 0 0 0 0 0 0 0 0 0 0 0 0 1 2 5 7 8 6 3 1 0 0 0 0 0 0 0 0 0 0 0 0 0 0 0 0
9 7 4 2 1 0 0 0 0 0 0 0 0 0 0 0 0 0 0 0 0 1 2 3 3 1 0 0 0 0 0 0 0 0 0 0 0 0 0 0 0 0 0
15 10 6 3 1 1 0 0 0 0 0 0 0 0 0 0 0 0 0 0 0 0 0 1 1 0 0 0 0 0 0 0 0 0 0 0 0 0 0 0 0 0 0
18 13 7 4 2 1 0 0 0 0 0 0 0 0 0 0 0 0 0 0 0 0 0 0 0 0 0 0 0 0 0 0 0 0 0 0 0 0 0 0 0 0 0
16 12 8 4 2 1 0 0 0 0 0 0 0 0 0 0 0 0 0 0 0 0 0 0 0 0 0 0 0 0 0 0 0 0 0 0 0 0 0 0 0 0 0
10 9 5 2 0 0 0 0 0 0 0 0 0 0 0 0 0 0 0 0 0 0 0 0 0 0 0 0 0 0 0 0 0 0 0 0 0 0 0 0 0 0 0
5 4 2 0 0 0 0 0 0 0 0 0 0 0 0 0 0 0 0 0 0 0 0 0 0 0 0 0 0 0 0 0 0 0 0 0 0 0 0 0 0 0 0
1 1 0 0 0 0 0 0 0 0 0 0 0 0 0 0 0 0 0 0 0 0 0 0 0 0 0 0 0 0 0 0 0 0 0 0 0 0 0 0 0 0 0
0 0 0 0 0 0 0 0 0 0 0 0 0 0 0 0 0 0 0 0 0 0 0 0 0 0 0 0 0 0 0 0 0 0 0 0 0 0 0 0 0 0 0
0 0 0 0 0 0 0 0 0 0 0 0 0 0 0 0 0 0 0 0 0 0 0 0 0 0 0 0 0 0 0 0 0 0 0 0 0 0 0 0 0 0 0
0 0 0 0 0 0 0 0 0 0 0 0 0 0 0 0 0 0 0 0 0 0 0 0 0 0 0 0 0 0 0 0 0 0 0 0 0 0 0 0 0 0 0
0 0 0 0 0 0 0 0 0 0 0 0 0 0 0 0 0 0 0 0 0 0 0 0 0 0 0 0 0 0 0 0 0 0 0 0 0 0 0 0 0 0 0
0 0 0 0 0 0 0 0 0 0 0 0 0 0 0 0 0 0 0 0 0 0 0 0 0 0 0 0 0 0 0 0 0 0 0 0 0 0 0 0 0 0 0
0 0 0 0 0 0 0 0 0 0 0 0 0 0 0 0 0 0 0 0 0 0 0 0 0 0 0 0 0 0 0 0 0 0 0 0 0 0 0 0 0 0 0
0 0 0 0 0 0 0 0 0 0 0 0 0 0 0 0 0 0 0 0 0 0 0 0 0 0 0 0 0 0 0 0 0 0 0 0 0 0 0 0 0 0 0
0 0 0 0 0 0 0 0 0 0 0 0 0 0 0 0 0 0 0 0 0 0 0 0 0 0 0 0 0 0 0 0 0 0 0 0 0 0 0 0 0 0 0
0 0 0 0 0 0 0 0 0 0 0 0 0 0 0 0 0 0 0 0 0 0 0 0 0 0 0 0 0 0 0 0 0 0 0 0 0 0 0 0 0 0 0
0 0 0 0 0 0 0 0 0 0 0 0 0 0 0 0 0 0 0 0 0 0 0 0 0 0 0 0 0 0 0 0 0 0 0 0 0 0 0 0 0 0 0
0 0 0 0 0 0 0 0 0 0 0 0 0 0 0 0 0 0 0 0 0 0 0 0 0 0 0 0 0 0 0 0 0 0 0 0 0 0 0 0 0 0 0
0 0 0 0 0 0 0 0 0 0 0 0 0 0 0 0 0 0 0 0 0 0 0 0 0 0 0 0 0 0 0 0 0 0 0 0 0 0 0 0 0 0 0
0 0 0 0 0 0 0 0 0 0 0 0 0 0 0 0 0 0 0 0 0 0 0 0 0 0 0 0 0 0 0 0 0 0 0 0 0 0 0 0 0 0 0
0 0 0 0 0 0 0 0 0 0 0 0 0 0 0 0 0 0 0 0 0 0 0 0 0 0 0 0 0 0 0 0 0 0 0 0 0 0 0 0 0 0 0
0 0 0 0 0 0 0 0 0 0 0 0 0 0 0 0 0 0 0 0 0 0 0 0 0 0 0 0 0 0 0 0 0 0 0 0 0 0 0 0 0 0 0
0 0 0 0 0 0 0 0 0 0 0 0 0 0 0 0 0 0 0 0 0 0 0 0 0 0 0 0 0 0 0 0 0 0 0 0 0 0 0 0 0 0 0
Wind_Speed
5 5 4 4 4 3 3 2 2 1 2 3 5 7 7 6 6 4 3 9 9 8 9 9 7 6 6 5 4 4 5 5 5 5 5 5 5 5 5 6 6 6 6
5 5 4 4 3 3 2 2 1 1 3 4 7 7 7 6 5 4 3 5 7 8 8 8 8 7 6 6 6 7 7 7 7 7 7 7 8 8 9 9 10 9 9
6 5 4 4 3 3 3 2 2 3 3 5 7 6 5 5 5 5 4 3 4 7 8 8 8 7 7 6 6 6 6 7 7 8 8 8 9 10 10 11 11 12 12
6 5 4 3 3 3 3 3 3 4 3 4 4 4 4 4 4 4 4 4 3 3 5 8 7 7 6 6 5 5 5 5 5 5 5 6 7 8 9 10 10 11 12
6 5 4 3 4 4 3 4 3 3 3 3 3 3 3 3 3 4 4 4 3 3 2 5 7 6 6 6 5 4 3 3 3 2 2 3 4 5 7 8 10 11 12
6 5 4 5 4 4 4 4 5 4 3 2 3 3 2 2 2 2 3 2 2 4 3 3 3 4 7 7 7 6 5 5 4 3 2 1 2 3 5 7 9 11 13
6 6 5 5 4 4 4 5 4 5 3 2 3 2 3 3 2 1 1 1 1 2 3 3 3 3 3 9 10 9 9 8 7 6 5 4 3 3 4 7 9 11 13
6 6 6 5 5 5 5 4 4 3 2 2 2 2 2 3 3 2 1 1 0 0 1 3 3 4 4 3 6 12 12 11 10 9 8 7 7 6 7 9 11 13 14
6 6 7 6 5 5 4 4 4 4 3 2 2 3 3 2 2 3 3 2 2 2 2 2 3 3 3 3 4 9 11 11 12 11 9 8 7 8 9 11 14 16 17
7 7 7 6 5 4 5 4 3 3 4 2 2 2 2 3 2 2 3 3 3 3 4 4 5 4 3 2 3 6 6 5 6 6 5 6 8 10 12 14 17 18 20
7 7 7 6 6 5 5 6 5 5 3 3 2 2 3 3 2 2 1 3 3 3 3 3 4 4 5 4 2 4 5 4 3 3 5 8 10 13 16 18 20 21 22
6 7 7 7 6 6 6 6 6 7 5 5 4 4 3 3 2 2 1 1 2 3 2 3 4 4 4 5 6 9 8 6 4 6 8 11 14 17 19 21 22 23 23
5 6 7 7 6 6 6 6 6 6 5 6 5 4 4 3 2 2 2 0 2 3 3 3 3 3 4 3 4 9 8 8 9 10 13 15 18 20 21 22 22 23 24
6 7 8 7 7 6 7 6 5 6 6 6 7 5 4 4 3 3 2 1 1 3 3 4 2 2 3 3 5 7 5 12 13 13 15 17 19 20 21 21 21 22 22
8 9 8 8 7 7 7 6 6 5 6 6 6 6 5 3 3 3 3 2 2 1 3 3 3 4 4 4 7 5 5 13 17 16 16 17 19 20 21 21 21 22 22
8 9 8 8 8 7 7 7 6 6 7 6 5 6 5 3 3 3 3 2 2 3 2 3 3 4 6 8 12 8 8 18 17 18 18 17 17 19 20 21 21 22 23
8 8 8 8 9 9 8 8 7 7 7 6 5 5 4 3 3 2 2 2 1 1 2 4 3 4 5 7 9 8 8 7 8 17 20 19 18 18 20 21 21 22 22
8 9 9 10 10 10 9 9 8 7 6 5 4 4 3 2 2 2 1 2 2 1 1 4 4 4 6 8 8 8 9 9 7 16 19 20 20 19 18 18 19 19 20
9 10 11 11 10 9 9 7 7 6 5 4 3 3 2 2 2 1 2 2 2 3 2 3 6 5 5 6 7 8 9 8 9 12 15 17 18 18 17 17 18 18 17
10 11 11 10 9 9 8 7 6 5 5 4 4 3 2 2 2 2 2 3 3 4 4 4 6 6 6 6 5 6 8 6 8 10 12 12 14 17 18 18 18 19 17
10 10 10 8 7 7 6 6 5 5 4 5 5 4 4 6 3 2 2 3 3 3 4 5 6 7 7 6 6 5 8 8 8 6 5 6 7 7 9 14 16 17 17
8 9 8 7 7 5 6 8 6 4 4 4 5 5 6 5 5 5 6 7 8 6 6 5 6 8 9 8 7 7 7 7 6 3 4 8 6 7 7 6 13 16 16
7 7 6 6 5 4 5 7 9 4 4 4 5 5 5 4 4 3 6 10 11 14 12 7 8 10 9 9 8 8 7 7 8 7 6 7 6 7 7 8 14 15 14
5 4 4 4 3 2 3 5 8 5 4 5 5 5 5 5 4 4 5 7 8 9 10 7 7 9 9 8 7 6 6 7 7 7 5 5 4 5 7 7 11 12 13
3 2 3 4 3 2 1 2 4 4 4 6 6 6 6 5 8 8 6 8 11 11 11 11 11 12 14 13 8 4 5 6 7 6 3 3 4 5 6 5 7 12 13
2 1 2 2 3 3 4 3 2 2 3 5 6 7 9 9 10 11 7 7 10 10 9 11 10 9 7 7 8 4 4 6 6 5 3 3 4 4 4 3 4 6 7
Wind_Direction
184 177 180 181 185 190 200 222 234 237 92 92 107 118 122 125 132 128 147 156 155 158 159 155 150 144 136 124 116 107 97 88 77 67 58 48 35 22 7 353 341 326 312
175 171 175 179 184 186 186 191 196 129 101 97 96 101 110 114 123 124 117 133 135 135 137 138 136 133 129 119 107 100 92 82 71 63 57 51 44 37 30 23 14 4 353
172 166 164 169 175 162 142 125 104 96 99 96 95 98 105 113 129 132 126 118 124 132 134 134 132 131 127 122 115 105 93 83 74 67 60 52 46 40 34 26 20 13 5
164 154 149 155 144 122 116 115 107 96 91 102 106 106 107 115 120 134 138 140 139 141 144 144 141 141 142 141 131 121 110 100 88 73 59 47 40 34 25 17 10 4 358
151 138 136 133 125 111 107 112 92 99 101 97 102 96 96 105 117 127 138 151 157 151 152 161 162 167 172 171 168 165 158 148 133 103 57 28 24 23 12 1 355 348 342
127 121 118 118 116 107 96 93 93 78 85 93 84 68 60 78 91 104 119 121 144 164 176 180 180 206 209 203 203 206 210 212 210 215 249 296 343 358 349 343 339 335 330
113 112 110 104 102 104 110 112 104 90 66 54 76 37 7 24 48 65 85 96 113 142 172 194 205 218 233 227 225 227 231 234 233 237 250 255 261 280 304 315 318 318 317
104 110 112 105 98 101 97 95 101 100 64 36 102 98 18 358 356 15 31 85 84 135 205 212 219 224 231 233 241 241 242 240 242 247 254 255 260 269 280 292 299 304 305
94 98 101 102 98 100 104 96 99 111 115 47 54 127 143 204 320 341 2 16 358 348 330 320 301 280 255 242 249 254 249 240 243 251 257 261 270 277 282 289 295 298 298
88 92 94 96 97 99 102 95 90 103 116 112 58 52 99 133 125 348 341 360 10 19 358 346 340 333 321 299 282 272 271 258 252 268 286 292 293 291 289 290 291 292 292
83 90 94 96 95 94 92 87 83 77 81 99 100 84 69 62 75 127 322 339 353 358 0 359 358 358 359 7 9 30 32 21 3 325 312 302 295 291 289 288 289 289 287
88 87 91 90 89 89 88 88 87 83 80 79 72 67 81 80 61 91 127 314 320 310 335 15 30 21 22 20 26 33 24 7 337 308 297 291 289 287 287 287 288 287 285
101 95 94 91 88 90 90 88 85 79 77 80 78 74 71 69 74 97 102 5 312 307 333 354 26 33 28 14 3 5 353 334 310 291 285 285 285 285 286 286 286 286 285
108 103 95 92 91 88 85 80 78 77 75 76 76 76 74 64 65 75 105 104 12 328 326 310 329 16 3 332 317 337 320 318 308 294 286 284 286 286 287 286 286 285 283
107 97 92 87 81 78 77 78 75 71 72 68 68 67 66 52 56 67 80 105 119 330 294 301 320 328 331 316 311 307 297 303 307 301 295 290 288 288 289 288 285 284 282
98 96 89 83 77 72 72 73 70 68 70 64 68 66 60 50 47 48 63 76 116 159 247 277 276 293 311 321 319 313 299 309 308 304 299 294 290 290 291 289 287 286 284
93 91 88 81 75 69 67 71 70 69 71 62 59 67 62 64 49 36 44 44 41 128 256 277 268 287 299 304 309 302 298 290 291 300 299 295 289 289 291 291 291 289 287
86 85 83 80 76 70 64 63 62 57 61 59 52 56 41 44 35 25 24 359 324 294 264 295 296 298 296 296 291 294 297 299 292 296 295 293 292 291 292 292 291 289 286
82 82 81 80 76 71 65 60 60 51 44 38 32 38 19 23 347 315 313 308 295 302 286 285 294 289 289 292 296 294 292 291 294 298 296 294 295 296 295 293 291 288 284
83 83 82 80 76 71 64 54 50 41 25 13 2 355 343 321 291 280 284 289 290 299 295 291 292 294 290 289 288 294 301 294 295 298 293 293 295 297 295 295 294 293 289
86 90 90 84 76 69 60 53 36 28 11 355 345 339 325 327 324 285 286 288 293 290 291 291 294 299 301 303 301 291 300 301 293 279 282 289 290 286 289 293 296 294 292
87 91 91 89 80 73 60 48 37 15 352 342 329 323 317 321 329 331 329 324 316 303 294 286 292 296 297 294 294 296 301 309 305 282 285 293 287 284 285 280 288 294 298
92 98 103 102 98 87 60 35 21 19 351 336 325 320 320 318 321 311 315 317 312 305 294 280 280 284 290 295 298 300 300 302 297 293 293 291 288 287 288 295 301 301 303
99 109 123 132 131 129 61 29 16 15 360 348 336 327 317 309 298 294 301 305 301 297 291 283 262 273 283 288 285 283 286 292 286 286 279 279 285 286 297 296 297 298 305
99 124 145 158 167 207 246 359 19 359 346 336 332 333 330 316 300 305 304 302 304 302 300 285 278 283 287 290 287 290 303 308 310 305 281 266 279 288 290 286 291 301 307
121 145 169 190 193 212 236 256 343 350 333 325 323 322 324 316 310 310 298 288 293 296 304 311 311 312 307 305 306 285 280 298 305 298 289 284 276 293 292 279 283 297 304